#timestamp,LO_Frequency,Hit,StdDev 
1564120815.8,286047004.2,Y
1564120835.6,286046998.9,P
1564120855.4,286046998.7,N
1564120875.3,286046998.8,N
1564120895.1,286046997.2,N
1564120915.9,286046996.5,N
1564120935.7,286046999.3,N
1564120955.5,286047001.0,N
1564120975.4,286047000.9,N
1564120995.2,286047000.8,N
1564121015.0,286046998.6,N
1564121015.9,286046998.6,N
1564121035.8,286047000.5,N
1564121055.1,286047001.2,N
1564121056.0,286047001.2,N
1564121075.8,286047000.8,N
1564121095.6,286047001.0,N
1564121115.5,286046999.0,N
1564121135.3,286046999.0,N
1564121155.2,286047001.1,N
1564121175.9,286047000.7,N
1564121195.7,286047000.2,N
1564121215.6,286046999.8,N
1564121235.2,286047001.9,N
1564121255.0,286047000.9,N
1564121255.9,286047000.9,N
1564121275.8,286047001.2,N
1564121295.6,286047000.7,N
1564121315.5,286047001.0,N
1564121335.3,286046998.8,N
1564121355.1,286046998.5,N
1564121375.9,286046998.4,N
1564121395.7,286047000.7,N
1564121415.5,286047000.8,N
1564121435.4,286047000.9,N
1564121455.2,286047000.1,N
1564121475.1,286047004.4,Y
1564121476.0,286047004.4,P
1564121495.8,286047003.9,N
1564121515.6,286047001.8,N
1564121535.5,286047001.6,N
1564121555.3,286047004.2,N
1564121575.2,286047001.8,N
1564121595.9,286046999.7,N
1564121615.7,286047002.2,N
1564121635.6,286047002.5,N
1564121655.4,286047000.0,N
1564121675.2,286047000.3,N
1564121695.1,286046999.8,N
1564121696.0,286046999.8,N
1564121715.8,286047000.2,N
1564121735.7,286046998.2,N
1564121755.5,286046999.4,N
1564121775.3,286046998.8,N
1564121795.2,286046998.1,N
1564121815.0,286046999.5,N
1564121815.9,286046999.5,N
1564121835.8,286046999.4,N
1564121855.6,286046998.1,N
1564121875.4,286047000.7,N
1564121895.3,286046998.1,N
1564121915.1,286047002.7,N
1564121935.8,286047000.0,N
1564121955.7,286046999.7,N
1564121975.5,286047001.7,N
1564121995.4,286047003.8,N
1564122015.2,286047001.6,N
1564122035.0,286047004.0,N
1564122035.9,286047004.0,N
1564122055.8,286047003.8,N
1564122075.6,286047004.2,N
1564122095.5,286047003.9,N
1564122115.3,286047002.1,N
1564122135.1,286047001.6,N
1564122155.9,286047004.0,N
1564122175.7,286047004.1,N
1564122195.5,286047001.4,N
1564122215.4,286047001.7,N
1564122235.2,286046999.8,N
1564122255.1,286047000.0,N
1564122256.0,286047000.0,N
1564122275.8,286047002.8,N
1564122295.6,286047000.6,N
1564122315.5,286047002.8,N
1564122335.3,286047002.3,N
1564122355.2,286046999.7,N
1564122375.9,286047002.1,N
1564122395.7,286047000.2,N
1564122415.6,286047000.2,N
1564122435.4,286046999.9,N
1564122455.3,286047000.5,N
1564122475.1,286046998.4,N
1564122476.0,286046998.4,N
1564122495.8,286046998.2,N
1564122515.7,286046998.6,N
1564122535.5,286046998.4,N
1564122555.3,286046998.3,N
1564122575.2,286046998.8,N
1564122595.0,286046998.9,N
1564122595.9,286046998.9,N
1564122615.8,286046998.5,N
1564122635.6,286046999.0,N
1564122655.4,286046999.1,N
1564122675.3,286046997.0,N
1564122695.1,286046996.9,N
1564122715.9,286046997.8,N
1564122735.7,286046997.3,N
1564122755.5,286046997.8,N
1564122775.4,286046997.8,N
1564122795.2,286046997.7,N
1564122815.1,286046997.0,N
1564122816.0,286046997.0,N
1564122835.8,286046997.4,N
1564122855.6,286046997.5,N
1564122875.5,286046995.1,Y
1564122895.3,286046996.8,P
1564122915.1,286046997.2,P
1564122935.9,286046996.8,P
1564122955.7,286046996.8,Y
1564122975.6,286047000.0,P
1564122995.4,286047002.7,N
1564123015.2,286047000.5,N
1564123035.1,286047000.2,N
1564123036.0,286047000.2,N
1564123055.8,286047000.3,N
1564123075.7,286046999.7,N
1564123095.5,286047002.4,N
1564123115.3,286047002.6,N
1564123135.2,286047001.9,N
1564123155.0,286047001.3,N
1564123155.9,286047001.3,N
1564123175.8,286047000.8,N
1564123195.6,286046998.6,N
1564123215.4,286046999.1,N
1564123235.3,286046999.1,N
1564123255.1,286046998.9,N
1564123275.8,286046999.1,N
1564123295.7,286046999.6,N
1564123315.5,286046998.7,N
1564123335.4,286046997.8,N
1564123355.2,286046997.0,N
1564123375.0,286046997.9,N
1564123375.9,286046997.9,N
1564123395.8,286046997.6,N
1564123415.6,286046995.2,N
1564123435.5,286046997.6,N
1564123455.3,286046995.1,N
1564123475.1,286046997.5,N
1564123495.9,286046996.6,N
1564123515.7,286046999.6,N
1564123535.6,286046995.3,N
1564123555.4,286046998.9,N
1564123575.2,286046999.6,N
1564123595.1,286046997.2,N
1564123596.0,286046997.2,N
1564123615.8,286046996.6,N
1564123635.7,286046999.4,N
1564123655.5,286046998.0,N
1564123675.3,286046998.9,N
1564123695.2,286046999.1,N
1564123715.0,286047001.0,N
1564123715.9,286047001.0,N
1564123735.8,286047001.0,N
1564123755.6,286047000.7,N
1564123775.4,286046998.4,N
1564123795.3,286046998.8,N
1564123815.1,286046999.2,N
1564123835.8,286046996.5,N
1564123855.7,286046996.8,N
1564123875.5,286046999.4,N
1564123895.4,286046998.8,N
1564123915.2,286047000.6,N
1564123935.0,286047002.7,N
1564123935.9,286047002.7,N
1564123955.8,286047000.3,N
1564123975.6,286046998.9,N
1564123995.5,286046998.4,N
1564124015.3,286046998.1,N
1564124035.1,286046999.7,N
1564124055.9,286047002.8,N
1564124075.7,286047000.0,N
1564124095.5,286047002.4,N
1564124115.3,286047001.3,N
1564124135.2,286047001.3,N
1564124155.0,286046999.7,N
1564124155.9,286046999.7,N
1564124175.8,286047002.7,N
1564124195.6,286047000.7,N
1564124215.4,286047000.9,N
1564124235.3,286046999.8,N
1564124255.1,286047000.7,N
1564124275.9,286047001.1,N
1564124295.7,286046999.9,N
1564124315.5,286047001.4,N
1564124335.4,286047000.1,N
1564124355.2,286047000.0,N
1564124375.0,286047002.1,N
1564124375.9,286047002.1,N
1564124395.8,286047001.8,N
